KI6IKQ Weather Reports


Display with metric or nautical units.
time (UTC)temp
F
wind
direction
speed
MPH
gust
MPH
rain 1hr
in
rain 24hr
in
rain mn
in
humidity
%
barometer
mb
20260508062724 59 295 1.0 3.0 0.00 0.00 0.00 78 1015.2
20260508061824 59 296 1.0 4.0 0.00 0.00 0.00 78 1015.1
20260508060924 60 301 1.0 3.0 0.00 0.00 0.00 77 1015.2
20260508060003 60 289 1.0 3.0 0.00 0.00 0.00 76 1015.2
20260508055403 60 296 1.0 2.0 0.00 0.00 0.00 76 1015.1
20260508054503 61 294 1.0 4.0 0.00 0.00 0.00 75 1015.2
20260508053603 61 304 1.0 4.0 0.00 0.00 0.00 74 1015.2
20260508052707 62 292 1.0 6.0 0.00 0.00 0.00 73 1015.2
20260508051803 62 304 2.0 5.0 0.00 0.00 0.00 72 1015.2
20260508050903 63 304 2.0 4.0 0.00 0.00 0.00 72 1015.3
20260508050024 63 305 2.0 7.0 0.00 0.00 0.00 70 1015.2
20260508045403 64 285 2.0 4.0 0.00 0.00 0.00 70 1015.2
20260508044503 64 291 2.0 7.0 0.00 0.00 0.00 69 1015.2
20260508043603 65 287 2.0 7.0 0.00 0.00 0.00 68 1015.1
20260508042703 65 284 2.0 5.0 0.00 0.00 0.00 67 1015.1
20260508041803 66 279 2.0 4.0 0.00 0.00 0.00 66 1015.2
20260508040903 66 309 2.0 7.0 0.00 0.00 0.00 65 1015.1
20260508040003 67 300 2.0 8.0 0.00 0.00 0.00 66 1014.8
20260508035403 68 280 2.0 6.0 0.00 0.00 0.00 67 1014.8
20260508034503 68 292 2.0 4.0 0.00 0.00 0.00 65 1014.7
20260508033603 69 306 2.0 8.0 0.00 0.00 0.00 64 1014.7
20260508032703 70 311 3.0 8.0 0.00 0.00 0.00 69 1014.5
20260508031803 71 297 2.0 5.0 0.00 0.00 0.00 68 1014.4
20260508030903 73 289 2.0 7.0 0.00 0.00 0.00 67 1014.2
20260508030024 74 282 3.0 7.0 0.00 0.00 0.00 65 1014.2
20260508025403 75 282 3.0 7.0 0.00 0.00 0.00 63 1014.2
20260508024503 76 294 3.0 7.0 0.00 0.00 0.00 61 1014.1
20260508023603 77 308 4.0 10.0 0.00 0.00 0.00 59 1014.0
20260508022703 78 291 3.0 7.0 0.00 0.00 0.00 58 1013.9
20260508021803 79 318 4.0 9.0 0.00 0.00 0.00 58 1013.9
20260508020903 80 301 4.0 9.0 0.00 0.00 0.00 56 1013.9
20260508020003 80 309 4.0 9.0 0.00 0.00 0.00 55 1013.9
20260508015403 81 302 4.0 10.0 0.00 0.00 0.00 54 1013.9
20260508014503 82 324 5.0 10.0 0.00 0.00 0.00 53 1013.9
20260508013603 82 325 7.0 13.0 0.00 0.00 0.00 52 1013.9
20260508012703 83 321 6.0 11.0 0.00 0.00 0.00 50 1013.8
20260508011824 84 328 5.0 12.0 0.00 0.00 0.00 49 1013.9
20260508010924 86 318 5.0 11.0 0.00 0.00 0.00 47 1013.9
20260508010003 87 312 5.0 9.0 0.00 0.00 0.00 48 1013.8
20260508005403 87 302 5.0 9.0 0.00 0.00 0.00 47 1013.8
20260508004503 87 299 3.0 8.0 0.00 0.00 0.00 47 1013.7
20260508003603 87 303 4.0 8.0 0.00 0.00 0.00 47 1013.8
20260508002703 87 284 3.0 8.0 0.00 0.00 0.00 47 1013.9
20260508001803 86 325 5.0 10.0 0.00 0.00 0.00 50 1013.9
20260508000903 86 318 4.0 10.0 0.00 0.00 0.00 49 1013.9
20260508000024 86 318 5.0 9.0 0.00 0.00 0.00 50 1013.9
20260507235424 86 307 5.0 9.0 0.00 0.00 0.00 50 1013.9
20260507234524 86 311 4.0 9.0 0.00 0.00 0.00 48 1014.0
20260507233624 86 321 5.0 10.0 0.00 0.00 0.00 49 1014.1
20260507232724 86 308 4.0 11.0 0.00 0.00 0.00 48 1014.2
20260507231803 85 309 4.0 10.0 0.00 0.00 0.00 50 1014.4
20260507230903 85 308 5.0 9.0 0.00 0.00 0.00 50 1014.5
20260507230024 84 312 5.0 11.0 0.00 0.00 0.00 50 1014.6
20260507225403 84 307 5.0 9.0 0.00 0.00 0.00 50 1014.7
20260507224503 84 311 5.0 10.0 0.00 0.00 0.00 51 1014.7
20260507223603 83 322 4.0 11.0 0.00 0.00 0.00 51 1014.8
20260507222703 82 340 5.0 12.0 0.00 0.00 0.00 52 1014.8
20260507221803 82 341 4.0 11.0 0.00 0.00 0.00 52 1015.0
20260507220903 82 329 4.0 10.0 0.00 0.00 0.00 53 1015.0
20260507220003 82 330 5.0 11.0 0.00 0.00 0.00 54 1015.3
20260507215403 81 332 5.0 12.0 0.00 0.00 0.00 53 1015.4
20260507214503 82 333 5.0 11.0 0.00 0.00 0.00 53 1015.4
20260507213603 82 329 4.0 11.0 0.00 0.00 0.00 54 1015.5
20260507212703 81 320 4.0 10.0 0.00 0.00 0.00 54 1015.8
20260507211803 81 319 5.0 11.0 0.00 0.00 0.00 56 1015.9
20260507210903 80 332 5.0 11.0 0.00 0.00 0.00 55 1016.0
20260507210003 80 332 4.0 9.0 0.00 0.00 0.00 57 1016.1
20260507205403 80 325 4.0 9.0 0.00 0.00 0.00 57 1016.2
20260507204503 80 320 4.0 8.0 0.00 0.00 0.00 56 1016.3
20260507203603 79 309 3.0 8.0 0.00 0.00 0.00 58 1016.4
20260507202703 79 323 4.0 12.0 0.00 0.00 0.00 58 1016.4
20260507201803 78 328 3.0 11.0 0.00 0.00 0.00 58 1016.6
20260507200903 78 308 4.0 9.0 0.00 0.00 0.00 57 1016.6
20260507200003 78 326 4.0 9.0 0.00 0.00 0.00 59 1016.7
20260507195403 78 318 5.0 9.0 0.00 0.00 0.00 60 1016.8
20260507194503 78 315 4.0 11.0 0.00 0.00 0.00 61 1017.0
20260507193603 77 322 3.0 9.0 0.00 0.00 0.00 62 1017.0
20260507192703 77 314 3.0 8.0 0.00 0.00 0.00 61 1016.9
20260507191803 77 299 3.0 8.0 0.00 0.00 0.00 62 1017.1
20260507190903 76 331 4.0 6.0 0.00 0.00 0.00 62 1017.3
20260507190004 76 327 4.0 10.0 0.00 0.00 0.00 62 1017.4
20260507185403 76 321 3.0 10.0 0.00 0.00 0.00 64 1017.3
20260507184504 75 310 3.0 8.0 0.00 0.00 0.00 65 1017.5
20260507183603 75 270 2.0 7.0 0.00 0.00 0.00 64 1017.6
20260507182703 74 306 3.0 8.0 0.00 0.00 0.00 65 1017.6
20260507181803 74 1 3.0 10.0 0.00 0.00 0.00 64 1017.6
20260507180903 74 327 3.0 7.0 0.00 0.00 0.00 67 1017.6
20260507180003 73 311 2.0 6.0 0.00 0.00 0.00 68 1017.7
20260507175403 73 301 3.0 7.0 0.00 0.00 0.00 68 1017.7
20260507174524 72 333 3.0 8.0 0.00 0.00 0.00 70 1017.8
20260507173603 71 310 3.0 8.0 0.00 0.00 0.00 70 1017.8
20260507172703 71 300 3.0 5.0 0.00 0.00 0.00 70 1017.8
20260507171803 70 298 3.0 7.0 0.00 0.00 0.00 71 1017.8
20260507170903 69 285 3.0 6.0 0.00 0.00 0.00 72 1017.9
20260507170024 69 281 3.0 6.0 0.00 0.00 0.00 74 1018.0
20260507165403 68 302 3.0 5.0 0.00 0.00 0.00 74 1018.0
20260507164503 68 304 2.0 6.0 0.00 0.00 0.00 76 1018.2
20260507163624 67 301 2.0 5.0 0.00 0.00 0.00 77 1018.1
20260507162703 66 294 2.0 5.0 0.00 0.00 0.00 78 1018.1
20260507161824 66 296 2.0 5.0 0.00 0.00 0.00 79 1018.2
20260507160903 65 296 1.0 3.0 0.00 0.00 0.00 81 1018.4
20260507160003 64 300 2.0 4.0 0.00 0.00 0.00 82 1018.3
20260507155403 63 313 2.0 5.0 0.00 0.00 0.00 83 1018.4
20260507154503 63 319 2.0 4.0 0.00 0.00 0.00 84 1018.3
20260507153603 62 319 3.0 5.0 0.00 0.00 0.00 86 1018.4
20260507152703 61 302 3.0 7.0 0.00 0.00 0.00 87 1018.4
20260507151803 60 285 2.0 6.0 0.00 0.00 0.00 88 1018.6
20260507150903 60 289 3.0 7.0 0.00 0.00 0.00 88 1018.5
20260507150003 59 300 3.0 5.0 0.00 0.00 0.00 89 1018.5
20260507145403 59 287 3.0 7.0 0.00 0.00 0.00 89 1018.6
20260507144503 58 287 3.0 6.0 0.00 0.00 0.00 90 1018.5
20260507143603 58 302 3.0 7.0 0.00 0.00 0.00 90 1018.4
20260507142724 58 306 3.0 7.0 0.00 0.00 0.00 91 1018.4
20260507141824 57 297 2.0 3.0 0.00 0.00 0.00 91 1018.3
20260507140924 56 295 1.0 3.0 0.00 0.00 0.00 92 1018.3
20260507140024 55 296 1.0 3.0 0.00 0.00 0.00 92 1018.1
20260507135424 55 294 1.0 3.0 0.00 0.00 0.00 91 1017.9
20260507134524 54 297 1.0 4.0 0.00 0.00 0.00 91 1017.8
20260507133624 54 309 1.0 4.0 0.00 0.00 0.00 91 1017.8
20260507132724 54 322 1.0 4.0 0.00 0.00 0.00 91 1017.8
20260507131824 54 311 1.0 3.0 0.00 0.00 0.00 90 1017.7
20260507130926 54 305 1.0 3.0 0.00 0.00 0.00 90 1017.6
20260507130003 54 308 0.0 2.0 0.00 0.00 0.00 90 1017.6
20260507125403 54 309 1.0 4.0 0.00 0.00 0.00 90 1017.4
20260507124503 54 303 1.0 4.0 0.00 0.00 0.00 90 1017.5
20260507123603 54 303 1.0 3.0 0.00 0.00 0.00 90 1017.5
20260507122705 54 303 1.0 3.0 0.00 0.00 0.00 90 1017.4
20260507121824 54 303 0.0 2.0 0.00 0.00 0.00 90 1017.5
20260507120924 54 302 1.0 3.0 0.00 0.00 0.00 90 1017.4
20260507120024 54 302 1.0 3.0 0.00 0.00 0.00 90 1017.5
20260507115424 54 300 1.0 2.0 0.00 0.00 0.00 90 1017.5
20260507114524 54 306 1.0 2.0 0.00 0.00 0.00 89 1017.6
20260507113603 54 307 1.0 3.0 0.00 0.00 0.00 89 1017.5
20260507112703 54 300 1.0 3.0 0.00 0.00 0.00 89 1017.5
20260507111803 54 303 1.0 3.0 0.00 0.00 0.00 89 1017.5
20260507110903 55 313 1.0 2.0 0.00 0.00 0.00 88 1017.5
20260507110003 55 287 1.0 4.0 0.00 0.00 0.00 88 1017.3
20260507105403 55 272 2.0 4.0 0.00 0.00 0.00 88 1017.4
20260507104504 55 271 1.0 4.0 0.00 0.00 0.00 88 1017.4
20260507103603 55 271 1.0 3.0 0.00 0.00 0.00 88 1017.4
20260507102703 56 271 1.0 4.0 0.00 0.00 0.00 87 1017.4
20260507101803 56 271 1.0 4.0 0.00 0.00 0.00 87 1017.4
20260507100903 56 276 2.0 6.0 0.00 0.00 0.00 87 1017.3
20260507100004 56 297 2.0 4.0 0.00 0.00 0.00 87 1017.4
20260507095403 56 296 2.0 4.0 0.00 0.00 0.00 87 1017.3
20260507094503 57 296 2.0 4.0 0.00 0.00 0.00 87 1017.4
20260507093603 57 298 1.0 4.0 0.00 0.00 0.00 87 1017.3
20260507092703 57 299 1.0 4.0 0.00 0.00 0.00 87 1017.5
20260507091804 58 301 0.0 3.0 0.00 0.00 0.00 88 1017.6
20260507090903 58 301 0.0 2.0 0.00 0.00 0.00 87 1017.5
20260507090004 58 301 0.0 2.0 0.00 0.00 0.00 87 1017.5
20260507085403 58 301 0.0 2.0 0.00 0.00 0.00 87 1017.5
20260507084524 58 301 1.0 2.0 0.00 0.00 0.00 87 1017.6
20260507083603 58 301 1.0 2.0 0.00 0.00 0.00 86 1017.4
20260507082703 58 304 1.0 5.0 0.00 0.00 0.00 86 1017.4
20260507081803 58 308 1.0 5.0 0.00 0.00 0.00 85 1017.4
20260507080903 59 313 1.0 3.0 0.00 0.00 0.00 85 1017.4
20260507080003 59 313 1.0 3.0 0.00 0.00 0.00 84 1017.4
20260507075403 59 313 1.0 3.0 0.00 0.00 0.00 84 1017.4
20260507074503 59 313 1.0 3.0 0.00 0.00 0.00 84 1017.5
20260507073603 59 313 1.0 3.0 0.00 0.00 0.00 84 1017.6
20260507072703 59 298 2.0 6.0 0.00 0.00 0.00 83 1017.6
20260507071803 59 290 2.0 4.0 0.00 0.00 0.00 83 1017.5
20260507070903 59 290 2.0 5.0 0.00 0.00 0.00 83 1017.5
20260507070005 60 290 2.0 4.0 0.00 0.00 0.00 82 1017.4
20260507065403 60 290 2.0 4.0 0.00 0.00 0.00 82 1017.4
20260507064503 60 290 1.0 3.0 0.00 0.00 0.00 82 1017.4
20260507063603 60 290 1.0 4.0 0.00 0.00 0.00 81 1017.3